When you browse on this site, cookies collect data to enhance your experience and personalize the content and advertising you see.
Visit our Privacy Policy to learn more. By continuing to use the site, you agree to this use of cookies and data.
  • In Portugal
  • List of Countries
  • For 7 days
  • Water Temperature
  • Satellite Maps
  • Weather Map
  • Weather Widgets
  • user-avatar
    Login

    Hourly Weather Wilczyn

    Today, 20 June, Thursday

    Time Temperature Precipitation Wind Pressure Humidity
    00:00 +20°C° 0 mm 2 mps 748 mmHg 82%
    01:00 +20°C° 0 mm 2 mps 748 mmHg 83%
    02:00 +20°C° 0 mm 2 mps 748 mmHg 82%
    03:00 +20°C° 0 mm 2 mps 748 mmHg 81%
    04:00 +20°C° 0 mm 2 mps 748 mmHg 80%
    05:00 +21°C° 0 mm 2 mps 748 mmHg 78%
    06:00 +23°C° 0 mm 2 mps 748 mmHg 77%
    07:00 +25°C° 0 mm 2 mps 748 mmHg 75%
    08:00 +26°C° 0 mm 2 mps 748 mmHg 69%
    09:00 +27°C° 0 mm 2 mps 748 mmHg 64%
    10:00 +29°C° 0 mm 3 mps 748 mmHg 59%
    11:00 +30°C° 0 mm 3 mps 748 mmHg 56%
    12:00 +30°C° 0 mm 3 mps 748 mmHg 53%
    13:00 +31°C° 0 mm 3 mps 748 mmHg 50%
    14:00 +31°C° 0 mm 3 mps 748 mmHg 51%
    15:00 +31°C° 0 mm 3 mps 748 mmHg 52%
    16:00 +31°C° 0 mm 3 mps 747 mmHg 53%
    17:00 +29°C° 0.1 mm 2 mps 748 mmHg 58%
    18:00 +28°C° 0.1 mm 2 mps 748 mmHg 63%
    19:00 +27°C° 0.1 mm 2 mps 748 mmHg 68%
    20:00 +25°C° 0.7 mm 2 mps 748 mmHg 76%
    21:00 +23°C° 0.7 mm 2 mps 749 mmHg 83%
    22:00 +20°C° 0.7 mm 2 mps 749 mmHg 90%
    23:00 +20°C° 0.6 mm 3 mps 749 mmHg 91%

    Tomorrow, 21 June, Friday

    Time Temperature Precipitation Wind Pressure Humidity
    00:00 +20°C° 0.6 mm 3 mps 750 mmHg 92%
    01:00 +19°C° 0.6 mm 4 mps 750 mmHg 93%
    02:00 +19°C° 0 mm 3 mps 750 mmHg 92%
    03:00 +19°C° 0 mm 3 mps 750 mmHg 91%
    04:00 +19°C° 0 mm 2 mps 750 mmHg 91%
    05:00 +20°C° 0 mm 2 mps 750 mmHg 89%
    06:00 +21°C° 0 mm 2 mps 751 mmHg 86%
    07:00 +23°C° 0 mm 2 mps 751 mmHg 84%
    08:00 +23°C° 0.4 mm 2 mps 752 mmHg 84%
    09:00 +23°C° 0.4 mm 2 mps 752 mmHg 84%
    10:00 +21°C° 0.4 mm 2 mps 752 mmHg 84%
    11:00 +23°C° 0.3 mm 2 mps 752 mmHg 78%
    12:00 +24°C° 0.3 mm 2 mps 752 mmHg 73%
    13:00 +25°C° 0.3 mm 2 mps 752 mmHg 67%
    14:00 +25°C° 0.3 mm 2 mps 752 mmHg 67%
    15:00 +25°C° 0.3 mm 3 mps 752 mmHg 68%
    16:00 +26°C° 0.3 mm 3 mps 752 mmHg 68%
    17:00 +25°C° 0.3 mm 3 mps 752 mmHg 73%
    18:00 +24°C° 0.3 mm 3 mps 753 mmHg 78%
    19:00 +22°C° 0.3 mm 3 mps 753 mmHg 83%
    20:00 +20°C° 0 mm 3 mps 753 mmHg 87%
    21:00 +19°C° 0 mm 3 mps 754 mmHg 90%
    22:00 +18°C° 0 mm 3 mps 754 mmHg 93%
    23:00 +17°C° 0 mm 3 mps 755 mmHg 93%

    Day after tomorrow, 22 June, Saturday

    Time Temperature Precipitation Wind Pressure Humidity
    00:00 +17°C° 0 mm 3 mps 755 mmHg 94%
    01:00 +16°C° 0 mm 3 mps 755 mmHg 94%
    02:00 +14°C° 0 mm 3 mps 755 mmHg 94%
    03:00 +14°C° 0 mm 3 mps 756 mmHg 93%
    04:00 +13°C° 0 mm 3 mps 756 mmHg 93%
    05:00 +14°C° 0 mm 3 mps 756 mmHg 88%
    06:00 +16°C° 0 mm 3 mps 756 mmHg 83%
    07:00 +17°C° 0 mm 3 mps 757 mmHg 78%
    08:00 +19°C° 0 mm 4 mps 757 mmHg 72%
    09:00 +20°C° 0 mm 4 mps 757 mmHg 67%
    10:00 +21°C° 0 mm 4 mps 757 mmHg 61%
    11:00 +22°C° 0 mm 4 mps 757 mmHg 59%
    12:00 +22°C° 0 mm 4 mps 757 mmHg 58%
    13:00 +23°C° 0 mm 4 mps 757 mmHg 57%
    14:00 +23°C° 0 mm 4 mps 757 mmHg 59%
    15:00 +23°C° 0 mm 5 mps 756 mmHg 61%
    16:00 +23°C° 0 mm 5 mps 756 mmHg 63%
    17:00 +21°C° 0 mm 5 mps 756 mmHg 67%
    18:00 +20°C° 0 mm 5 mps 756 mmHg 72%
    19:00 +19°C° 0 mm 5 mps 757 mmHg 77%
    20:00 +17°C° 0 mm 5 mps 757 mmHg 76%
    21:00 +15°C° 0 mm 5 mps 757 mmHg 75%
    22:00 +14°C° 0 mm 5 mps 757 mmHg 74%
    23:00 +14°C° 0 mm 5 mps 757 mmHg 76%

    23 June, Sunday

    Time Temperature Precipitation Wind Pressure Humidity
    00:00 +13°C° 0 mm 4 mps 757 mmHg 78%
    01:00 +13°C° 0 mm 4 mps 757 mmHg 80%
    02:00 +12°C° 0 mm 4 mps 757 mmHg 79%
    03:00 +12°C° 0 mm 4 mps 757 mmHg 77%
    04:00 +12°C° 0 mm 4 mps 757 mmHg 76%
    05:00 +12°C° 0 mm 4 mps 757 mmHg 75%
    06:00 +13°C° 0 mm 4 mps 757 mmHg 74%
    07:00 +13°C° 0 mm 4 mps 758 mmHg 73%
    08:00 +15°C° 0 mm 4 mps 758 mmHg 71%
    09:00 +17°C° 0 mm 4 mps 758 mmHg 68%
    10:00 +18°C° 0 mm 4 mps 758 mmHg 65%
    11:00 +19°C° 0 mm 4 mps 758 mmHg 63%
    12:00 +21°C° 0 mm 4 mps 758 mmHg 60%
    13:00 +22°C° 0 mm 4 mps 758 mmHg 58%
    14:00 +22°C° 0 mm 4 mps 758 mmHg 57%
    15:00 +22°C° 0 mm 4 mps 758 mmHg 57%
    16:00 +22°C° 0 mm 5 mps 757 mmHg 56%
    17:00 +21°C° 0 mm 4 mps 758 mmHg 62%
    18:00 +19°C° 0 mm 4 mps 758 mmHg 68%
    19:00 +18°C° 0 mm 3 mps 758 mmHg 74%
    20:00 +17°C° 0 mm 3 mps 758 mmHg 79%
    21:00 +14°C° 0 mm 3 mps 759 mmHg 84%
    22:00 +13°C° 0 mm 3 mps 759 mmHg 89%
    23:00 +12°C° 0 mm 3 mps 759 mmHg 91%

    24 June, Monday

    Time Temperature Precipitation Wind Pressure Humidity
    00:00 +12°C° 0 mm 3 mps 759 mmHg 92%
    01:00 +11°C° 0 mm 3 mps 759 mmHg 94%
    02:00 +11°C° 0 mm 3 mps 759 mmHg 94%
    03:00 +11°C° 0 mm 3 mps 760 mmHg 93%
    04:00 +11°C° 0 mm 3 mps 760 mmHg 93%
    05:00 +12°C° 0 mm 3 mps 760 mmHg 88%
    06:00 +14°C° 0 mm 3 mps 760 mmHg 82%
    07:00 +17°C° 0 mm 3 mps 760 mmHg 76%
    08:00 +18°C° 0 mm 3 mps 760 mmHg 70%
    09:00 +20°C° 0 mm 3 mps 760 mmHg 64%
    10:00 +21°C° 0 mm 3 mps 760 mmHg 57%
    11:00 +22°C° 0 mm 3 mps 760 mmHg 54%
    12:00 +24°C° 0 mm 3 mps 760 mmHg 50%
    13:00 +25°C° 0 mm 3 mps 760 mmHg 47%
    14:00 +25°C° 0 mm 3 mps 760 mmHg 47%
    15:00 +25°C° 0 mm 3 mps 759 mmHg 47%
    16:00 +25°C° 0 mm 3 mps 759 mmHg 48%
    17:00 +24°C° 0 mm 3 mps 759 mmHg 55%
    18:00 +23°C° 0 mm 2 mps 760 mmHg 62%
    19:00 +20°C° 0 mm 2 mps 760 mmHg 69%
    20:00 +19°C° 0 mm 2 mps 760 mmHg 75%
    21:00 +17°C° 0 mm 3 mps 760 mmHg 81%
    22:00 +16°C° 0 mm 3 mps 761 mmHg 88%
    23:00 +16°C° 0 mm 3 mps 761 mmHg 89%

    25 June, Tuesday

    Time Temperature Precipitation Wind Pressure Humidity
    00:00 +14°C° 0 mm 3 mps 761 mmHg 91%
    01:00 +13°C° 0 mm 3 mps 761 mmHg 92%
    02:00 +14°C° 0 mm 2 mps 761 mmHg 92%
    03:00 +14°C° 0 mm 2 mps 761 mmHg 92%
    04:00 +13°C° 0 mm 2 mps 761 mmHg 92%
    05:00 +15°C° 0 mm 2 mps 761 mmHg 86%
    06:00 +17°C° 0 mm 2 mps 761 mmHg 80%
    07:00 +19°C° 0 mm 2 mps 761 mmHg 75%
    08:00 +20°C° 0 mm 2 mps 761 mmHg 70%
    09:00 +23°C° 0 mm 2 mps 761 mmHg 65%
    10:00 +24°C° 0 mm 2 mps 761 mmHg 60%
    11:00 +25°C° 0 mm 2 mps 761 mmHg 56%
    12:00 +25°C° 0 mm 2 mps 761 mmHg 53%
    13:00 +26°C° 0 mm 2 mps 760 mmHg 49%
    14:00 +26°C° 0 mm 2 mps 760 mmHg 49%
    15:00 +26°C° 0 mm 2 mps 760 mmHg 50%
    16:00 +26°C° 0 mm 3 mps 760 mmHg 50%
    17:00 +25°C° 0 mm 3 mps 760 mmHg 57%
    18:00 +24°C° 0 mm 3 mps 760 mmHg 63%
    19:00 +22°C° 0 mm 3 mps 760 mmHg 70%
    20:00 +20°C° 0 mm 3 mps 760 mmHg 72%
    21:00 +19°C° 0 mm 3 mps 760 mmHg 74%
    22:00 +17°C° 0 mm 3 mps 760 mmHg 77%
    23:00 +17°C° 0 mm 2 mps 760 mmHg 79%
    Show more